Regional Weather Roundup
Issued by NWS Jackson, KY

Home | Current Version | Previous Version | Graphics & Text | Print | Product List | Glossary On
Versions: 1 2 3 4 5 6 7 8 9 10 11 12 13 14 15 16 17 18 19 20 21 22 23 24 25 26 27 28 29 30 31 32 33 34 35 36 37 38 39 40 41 42 43 44 45 46 47 48 49 50
000
ASUS43 KJKL 171905
RWRJKL

EAST KENTUCKY HOURLY WEATHER ROUNDUP
NATIONAL WEATHER SERVICE JACKSON KY
200 PM EST WED DEC 17 2014

NOTE: "FAIR" INDICATES FEW OR NO CLOUDS BELOW 12,000 FEET WITH
NO SIGNIFICANT WEATHER AND/OR OBSTRUCTIONS TO VISIBILITY.

* THESE REPORTS ARE NOT UNDER NWS QUALITY CONTROL AND MAY NOT
  REPORT WEATHER SUCH AS PRECIPITATION AND FOG.

KYZ079-080-083-085-087-088-110-112-115-119-120-172000
...EASTERN KENTUCKY...

CITY           SKY/WX    TMP DP  RH WIND       PRES   REMARKS
JACKSON        CLOUDY    38  30  73 VRB5      30.17F WCI  34
LONDON         CLOUDY    38  28  67 SW6       30.19F WCI  33
SOMERSET*      CLOUDY    36  28  75 SW7       30.23F WCI  30
MONTICELLO*    CLOUDY    38  29  70 SW6       30.24F WCI  33
MIDDLESBORO*   PTSUNNY   41  32  69 NW3       30.19F
HARLAN APT*    MOCLDY    41  30  65 CALM      30.16F
BLACK MTN*       N/A     37  30  75 NE1         N/A
PIKEVILLE APT* PTSUNNY   41  30  65 SW6       30.14F
BIG SANDY*     CLOUDY    38  31  76 W5        30.17F WCI  34
MOREHEAD APT*  CLOUDY    34  27  75 W6        30.21F WCI  29
$$

KYZ035-036-041-042-044-050-067-078-099-172000
...CENTRAL KENTUCKY...

CITY           SKY/WX    TMP DP  RH WIND       PRES   REMARKS
MT STERLING*   CLOUDY    34  30  86 NW5       30.21F WCI  30
FLEMING/MASON* CLOUDY    32  27  81 W10       30.20F WCI  24
DANVILLE*      PTSUNNY   36  28  75 CALM      30.21F
RICHMOND*      CLOUDY    36  27  69 W5        30.20F WCI  32
LEXINGTON      CLOUDY    34  27  75 W8        30.21F WCI  27
FRANKFORT      CLOUDY    34  26  72 W8        30.21F WCI  27
$$

KYZ091>093-OHZ055-061-077-WVZ005-015-034-035-042-172000
...SOUTHERN OHIO/WEST VIRGINIA...

CITY           SKY/WX    TMP DP  RH WIND       PRES   REMARKS
COVINGTON      CLOUDY    32  23  69 W10       30.20F WCI  24
COLUMBUS       CLOUDY    31  25  78 W13       30.16S WCI  21
DAYTON         CLOUDY    29  23  78 W16       30.18F WCI  17
WILMINGTON     CLOUDY    30  23  75 W12       30.17F WCI  20
HUNTINGTON     CLOUDY    36  28  73 W7G14     30.17F WCI  30
CHARLESTON     CLOUDY    38  29  70 NW9       30.15F WCI  31
PINEVILLE*     PTSUNNY   43  35  73 MISG      30.16F
BECKLEY        MOSUNNY   39  28  64 W12       30.08F WCI  32
BLUEFIELD      PTSUNNY   39  32  76 W10       30.07F WCI  32
$$

VAZ002-007-008-TNZ017-027-036-066-071-172000
...SOUTHWEST VIRGINIA/EAST TENNESSEE...

CITY           SKY/WX    TMP DP  RH WIND       PRES   REMARKS
WISE*          MOSUNNY   43  30  61 W7        30.12F
JONESVILLE*    MOCLDY    43  30  61 SW7       30.18F
ABINGDON*      PTSUNNY   47  33  57 W10       30.11F
BRISTOL        MOSUNNY   48  33  56 W12       30.14F
KNOXVILLE      CLOUDY    44  35  70 S5        30.18F
OAK RIDGE      CLOUDY    47  34  60 CALM      30.19F
CROSSVILLE     CLOUDY    38  30  73 CALM      30.18F
NASHVILLE      CLOUDY    39  30  70 W3        30.26F
$$

...KEY TO REMARKS...
VSB - VISIBILITY IN MILES
WCI - WIND CHILL INDEX
HX  - HEAT INDEX

$$


USA.gov is the U.S. government's official web portal to all federal, state and local government web resources and services.